GW1508 Weather Reports


Display with metric or nautical units.
time (UTC)temp
F
wind
direction
speed
MPH
gust
MPH
rain 1hr
in
rain 24hr
in
rain mn
in
humidity
%
barometer
mb
20260506085907 39 233 0.0 2.0 0.01 0.72 0.23 93 1014.6
20260506084359 39 262 0.0 4.0 0.01 0.73 0.23 93 1014.3
20260506081405 39 285 0.0 2.0 0.02 0.73 0.23 93 1014.8
20260506072907 38 19 2.0 5.0 0.06 0.75 0.22 93 1014.7
20260506071400 38 68 0.0 4.0 0.10 0.73 0.20 93 1014.9
20260506061357 37 56 0.0 2.0 0.10 0.63 0.10 93 1015.3
20260506051359 38 83 0.0 2.0 0.00 0.52 0.00 93 1015.1
20260506042908 35 327 0.0 0.0 0.00 0.52 0.00 93 1015.1
20260506041401 36 327 0.0 0.0 0.00 0.52 0.00 93 1014.9
20260506035855 37 327 0.0 2.0 0.00 0.52 0.00 93 1015.1
20260506034351 38 74 0.0 2.0 0.00 0.52 0.00 93 1015.4
20260506031402 37 63 0.0 4.0 0.00 0.52 0.00 93 1016.0
20260506025855 37 23 0.0 1.0 0.00 0.52 0.00 93 1016.0
20260506022904 32 115 0.0 0.0 0.00 0.52 0.00 93 1016.2
20260506021356 33 115 0.0 0.0 0.00 0.52 0.00 93 1016.5
20260506014407 34 115 0.0 1.0 0.00 0.52 0.00 93 1016.5
20260506012859 34 115 0.0 5.0 0.00 0.52 0.00 93 1016.8
20260506011352 32 55 0.0 0.0 0.00 0.52 0.00 93 1017.0
20260506004405 31 55 0.0 0.0 0.00 0.52 0.00 93 1017.0
20260506002856 31 55 0.0 0.0 0.00 0.52 0.00 94 1017.2
20260505235904 33 55 0.0 0.0 0.00 0.52 0.00 93 1017.3
20260505232859 34 55 0.0 0.0 0.00 0.52 0.00 93 1017.6
20260505225906 37 55 0.0 0.0 0.00 0.52 0.00 93 1017.9
20260505224400 38 55 0.0 0.0 0.00 0.52 0.00 93 1017.8
20260505222852 38 55 0.0 2.0 0.00 0.52 0.00 93 1017.9
20260505215913 36 55 0.0 0.0 0.00 0.52 0.00 93 1018.2
20260505214402 36 55 0.0 0.0 0.00 0.52 0.52 93 1018.3
20260505212856 34 55 0.0 0.0 0.00 0.52 0.52 93 1018.3
20260505211353 35 55 0.0 0.0 0.00 0.52 0.52 93 1018.3
20260505204408 38 59 0.0 1.0 0.00 0.52 0.52 93 1018.2
20260505202858 39 59 0.0 2.0 0.00 0.52 0.52 93 1018.5
20260505195853 40 177 2.0 6.0 0.01 0.52 0.52 93 1018.5
20260505192906 40 58 0.0 1.0 0.01 0.52 0.52 93 1018.3
20260505185859 40 71 0.0 0.0 0.00 0.52 0.52 93 1018.0
20260505184352 40 71 0.0 0.0 0.00 0.52 0.52 93 1017.8
20260505181404 40 71 0.0 2.0 0.00 0.52 0.52 93 1017.5
20260505174403 40 76 0.0 2.0 0.01 0.52 0.52 93 1017.4
20260505172900 40 71 0.0 4.0 0.01 0.52 0.52 93 1017.5
20260505171355 40 84 0.0 4.0 0.01 0.52 0.52 93 1017.4
20260505164405 40 221 0.0 1.0 0.02 0.51 0.51 93 1017.4
20260505162853 40 205 0.0 2.0 0.02 0.51 0.51 93 1017.3
20260505151405 40 23 0.0 2.0 0.00 0.50 0.50 93 1017.6
20260505122906 39 103 0.0 4.0 0.06 0.46 0.46 93 1017.5
20260505121400 39 207 0.0 4.0 0.05 0.45 0.45 93 1017.5
20260505115855 38 239 0.0 4.0 0.03 0.43 0.43 93 1017.4
20260505114351 39 193 1.0 5.0 0.02 0.42 0.42 93 1017.4
20260505111401 39 23 1.0 4.0 0.13 0.40 0.40 93 1017.3
20260505100039 38 202 5.0 8.0 0.13 0.17 0.17 93 1017.0
20260505094358 38 248 0.0 6.0 0.08 0.11 0.11 93 1016.9
20260505092856 38 187 0.0 5.0 0.05 0.07 0.07 93 1016.9